Location: Shepherdstown, WV
(39.4326°N, 77.8042°W)
Time: 19:13:03
(UTC-04:00)

Vanguard 1 Rocket - Pass Details

Date: 07 August 2021
Orbit: 650 x 4226 km, 34.3° (Epoch: 19 September)

Event Time Altitude Azimuth Distance (km) Brightness Sun altitude
Rises 14:48:41 0° 281° (W) 6,935 12.1 59.3°
Reaches altitude 10° 14:54:22 10° 276° (W) 5,315 11.8 58.5°
Maximum altitude 15:06:40 41° 213° (SSW) 2,174 11.0 56.7°
Drops below altitude 10° 15:13:26 10° 145° (SE) 2,941 10.1 55.6°
Sets 15:15:41 0° 137° (SE) 3,631 10.4 55.2°
